GSAT0209 (GALILEO 12)

Last updated on Tue Nov 19 2024 00:02:30 GMT+0000 (Coordinated Universal Time)

1 41174U 15079A 24323.01371595 .00000034 00000+0 00000+0 0 9999 2 41174 55.5029 117.0869 0001901 352.9188 7.0505 1.70474365 54951
UTC large
Height (km)
Speed (km/s)
/
Latitude / Longitude
Inclination (degrees)
Orbital Period (minutes)
Azimuth
Elevation
Range (km)
Doppler Factor

Next 0 passes for location: London (51.5072 / 0.1276)

Sorry there are no passes over London.